STARLINK-11378, 62020

Orbit data source: Space-Track

STARLINK-11378, 62020 is a payload satellite owned by SpaceX/Seattle (US) in LEO that was launched on Mon, 18 Nov 2024 UTC via an FALCON 9 launch vehicle from the Air Force Western Test Range (AFWTR). Payload-class satellites include a variety of spacecraft equipped with specific instruments for various scientific and technological missions. These include communications satellites like Starlink; space stations such as the ISS; scientific satellites like the Hubble; Earth observation satellites from companies like Planet Labs, Umbra, and HawkEye 360; GPS; miniature CubeSats for education and research; and military/defense satellites.

Loading next visibility...
Identifier
62020, 2024-213N
Orbit
LEO
Last TLE update
20 hours ago
Origin
Manufacturer
SpaceX/Seattle
Mission
Operational Commercial Communications
Bus & Motor
STARLINK V2M, Unknown motor
Mass
730 kg wet, ~700 kg dry
Launch date (UTC)
2024-11-18 (7 months ago)
Launch vehicle
FALCON 9
Launch site
Air Force Western Test Range (AFWTR)
Object type
Payload
Rocket body
Debris
Shape & HBR
Box + 2 Pan, 29 m
Radar Cross Section
36.964 m², Large (>1 m²)

Expand to show TLE details & history

TLE from 20 hours ago
0 STARLINK-11378
1 62020U 24213N   25183.42993034  .00076473  00000-0  63018-3 0  9993
2 62020  53.1578 194.6126 0001212  97.0395 263.0761 15.69713207 35610
Epoch: 2025-07-02T10:19Z
TLE epoch observation values (Epoch: 2025-07-02T10:19:05.981Z)
Latitude
Longitude
119.12653°
Altitude
360.731 km
Speed
7.694 km/s
True Right ascension
12h 58m 27s
True Declination
0° 00' 00"
Sunlit
Object was in daylight at epoch
Visualization orbit readout
Latitude
-12.08608°
Longitude
105.87798°
Altitude
362.956 km
Speed
7.692 km/s
Apparent Right ascension
09h 34m 31s
Apparent Declination
-34° 24' 23"
Sunlit
Object is in daylight
Visualization observer readout
Local Sidereal Time
17:52:43
Azimuth
258.914° W
Elevation
-46.175°
Doppler factor
1
Orbital elements
Apogee altitude
360.795 km
Perigee altitude
359.162 km
Semi-major axis
6,738.116 km
Eccentricity
0.00012
Inclination
53.1578°
RAAN
194.6126°
Arg. of periapsis
97.0395°
True anomaly
Unknown
Mean anomaly
263.0761°
Eccentric anomaly
Unknown
Mean motion
3.92406 °/min
Orbital period
91.74 mins
BSTAR
0.00063018
Loading maneuver chart data...
Loading SW <> Apogee altitude chart data...
Loading historical data...
Loading historical data...
Loading historical data...
Loading historical data...
Loading historical data...
Loading historical data...
Loading historical data...

STARLINK-11378 Visibility forecast

Observer location: undefined°, undefined°

Span
Click to sort rows by Start time (UTC) header in descending order
Start Az.
Max El. time (UTC)
Max El. Az.
Max El.
End time (UTC)
End Az.
4 mins2025-07-03 09:43:05.763Z328.669° NNW2025-07-03 09:45:05.763Z25.106° NE31.546°2025-07-03 09:47:05.763Z97.06° ESE
4 mins2025-07-04 03:48:05.763Z277.498° WNW2025-07-04 03:49:05.763Z311.055° NW28.076°2025-07-04 03:52:05.763Z33.622° NE
|